Year,Month,Day,Hour,Minute,Value (Times are PST for temperature in C)
2019,05,06,09,36,17.10
2019,05,06,09,37,17.10
2019,05,06,09,38,17.10
2019,05,06,09,39,17.10
2019,05,06,09,40,17.20
2019,05,06,09,41,17.20
2019,05,06,09,42,17.30
2019,05,06,09,43,17.40
2019,05,06,09,44,17.40
2019,05,06,09,45,17.50
2019,05,06,09,46,17.50
2019,05,06,09,47,17.60
2019,05,06,09,48,17.50
2019,05,06,09,49,17.40
2019,05,06,09,50,17.40
2019,05,06,09,51,17.40
2019,05,06,09,52,17.40
2019,05,06,09,53,17.50
2019,05,06,09,54,17.50
2019,05,06,09,55,17.40
2019,05,06,09,56,17.40
2019,05,06,09,57,17.30
2019,05,06,09,58,17.30
2019,05,06,09,59,17.20
2019,05,06,10,00,17.20
2019,05,06,10,01,17.30
2019,05,06,10,02,17.20
2019,05,06,10,03,17.20
2019,05,06,10,04,17.30
2019,05,06,10,05,17.30
2019,05,06,10,06,17.40
2019,05,06,10,07,17.40
2019,05,06,10,08,17.40
2019,05,06,10,09,17.40
2019,05,06,10,10,17.30
2019,05,06,10,11,17.30
2019,05,06,10,12,17.20
2019,05,06,10,13,17.20
2019,05,06,10,14,17.20
2019,05,06,10,15,17.10
2019,05,06,10,16,17.10
2019,05,06,10,17,17.00
2019,05,06,10,18,17.00
2019,05,06,10,19,17.00
2019,05,06,10,20,17.00
2019,05,06,10,21,17.10
2019,05,06,10,22,17.20
2019,05,06,10,23,17.20
2019,05,06,10,24,17.20
2019,05,06,10,25,17.30
2019,05,06,10,26,17.40
2019,05,06,10,27,17.50
2019,05,06,10,28,17.50
2019,05,06,10,29,17.60
2019,05,06,10,30,17.60
2019,05,06,10,31,17.50
2019,05,06,10,32,17.40
2019,05,06,10,33,17.40
2019,05,06,10,34,17.30
2019,05,06,10,35,17.30
2019,05,06,10,36,17.30
2019,05,06,10,37,17.20
2019,05,06,10,38,17.10
2019,05,06,10,39,16.90
2019,05,06,10,40,16.70
2019,05,06,10,41,16.60
2019,05,06,10,42,16.50
2019,05,06,10,43,16.50
2019,05,06,10,44,16.40
2019,05,06,10,45,16.40
2019,05,06,10,46,16.40
2019,05,06,10,47,16.40
2019,05,06,10,48,16.30
2019,05,06,10,49,16.30
2019,05,06,10,50,16.30
2019,05,06,10,51,16.30
2019,05,06,10,52,16.40
2019,05,06,10,53,16.40
2019,05,06,10,54,16.40
2019,05,06,10,55,16.40
2019,05,06,10,56,16.50
2019,05,06,10,57,16.60
2019,05,06,10,58,16.60
2019,05,06,10,59,16.60
2019,05,06,11,00,16.60
2019,05,06,11,01,16.70
2019,05,06,11,02,16.70
2019,05,06,11,03,16.80
2019,05,06,11,04,16.90
2019,05,06,11,05,17.10
2019,05,06,11,06,17.00
2019,05,06,11,07,17.00
2019,05,06,11,08,17.00
2019,05,06,11,09,17.10
2019,05,06,11,10,17.10
2019,05,06,11,11,17.10
2019,05,06,11,12,17.10
2019,05,06,11,13,17.20
2019,05,06,11,14,17.30
2019,05,06,11,15,17.40
2019,05,06,11,16,17.40
2019,05,06,11,17,17.60
2019,05,06,11,18,17.60
2019,05,06,11,19,17.60
2019,05,06,11,20,17.60
2019,05,06,11,21,17.60
2019,05,06,11,22,17.60
2019,05,06,11,23,17.60
2019,05,06,11,24,17.60
2019,05,06,11,25,17.60
2019,05,06,11,26,17.70
2019,05,06,11,27,17.70
2019,05,06,11,28,17.70
2019,05,06,11,29,17.70
2019,05,06,11,30,17.70
2019,05,06,11,31,17.70
2019,05,06,11,32,17.70
2019,05,06,11,33,17.70
2019,05,06,11,34,17.70
2019,05,06,11,35,17.70
2019,05,06,11,36,17.80
2019,05,06,11,37,17.80
2019,05,06,11,38,17.80
2019,05,06,11,39,17.80
2019,05,06,11,40,17.80
2019,05,06,11,41,17.80
2019,05,06,11,42,17.80
2019,05,06,11,43,17.80
2019,05,06,11,44,17.90
2019,05,06,11,45,17.90
2019,05,06,11,46,17.80
2019,05,06,11,47,17.80
2019,05,06,11,48,17.80
2019,05,06,11,49,17.90
2019,05,06,11,50,18.00
2019,05,06,11,51,18.10
2019,05,06,11,52,18.10
2019,05,06,11,53,18.10
2019,05,06,11,54,18.20
2019,05,06,11,55,18.10
2019,05,06,11,56,18.10
2019,05,06,11,57,18.10
2019,05,06,11,58,18.10
2019,05,06,11,59,18.10
2019,05,06,12,00,18.20
2019,05,06,12,01,18.20
2019,05,06,12,02,18.30
2019,05,06,12,03,18.30
2019,05,06,12,04,18.40
2019,05,06,12,05,18.40
2019,05,06,12,06,18.30
2019,05,06,12,07,18.30
2019,05,06,12,08,18.30
2019,05,06,12,09,18.30
2019,05,06,12,10,18.30
2019,05,06,12,11,18.30
2019,05,06,12,12,18.20
2019,05,06,12,13,18.10
2019,05,06,12,14,18.00
2019,05,06,12,15,18.00
2019,05,06,12,16,18.00
2019,05,06,12,17,18.10
2019,05,06,12,18,18.10
2019,05,06,12,19,18.10
2019,05,06,12,20,18.10
2019,05,06,12,21,18.10
2019,05,06,12,22,18.10
2019,05,06,12,23,18.10
2019,05,06,12,24,18.00
2019,05,06,12,25,18.00
2019,05,06,12,26,17.90
2019,05,06,12,27,17.80
2019,05,06,12,28,17.80
2019,05,06,12,29,17.90
2019,05,06,12,30,17.90
2019,05,06,12,31,18.00
2019,05,06,12,32,18.00
2019,05,06,12,33,17.90
2019,05,06,12,34,17.90
2019,05,06,12,35,17.90
2019,05,06,12,36,18.00
2019,05,06,12,37,18.20
2019,05,06,12,38,18.20
2019,05,06,12,39,18.30
2019,05,06,12,40,18.50
2019,05,06,12,41,18.60
2019,05,06,12,42,18.70
2019,05,06,12,43,18.80
2019,05,06,12,44,18.80
2019,05,06,12,45,18.90
2019,05,06,12,46,18.90
2019,05,06,12,47,18.90
2019,05,06,12,48,18.90
2019,05,06,12,49,18.80
2019,05,06,12,50,18.80
2019,05,06,12,51,18.80
2019,05,06,12,52,18.80
2019,05,06,12,53,18.80
2019,05,06,12,54,18.70
2019,05,06,12,55,18.80
2019,05,06,12,56,18.90
2019,05,06,12,57,18.90
2019,05,06,12,58,18.90
2019,05,06,12,59,19.00
2019,05,06,13,00,19.00
2019,05,06,13,01,19.00
2019,05,06,13,02,19.10
2019,05,06,13,03,19.20
2019,05,06,13,04,19.20
2019,05,06,13,05,19.30
2019,05,06,13,06,19.30
2019,05,06,13,07,19.30
2019,05,06,13,08,19.30
2019,05,06,13,09,19.30
2019,05,06,13,10,19.30
2019,05,06,13,11,19.30
2019,05,06,13,12,19.40
2019,05,06,13,13,19.40
2019,05,06,13,14,19.40
2019,05,06,13,15,19.40
2019,05,06,13,16,19.40
2019,05,06,13,17,19.40
2019,05,06,13,18,19.40
2019,05,06,13,19,19.30
2019,05,06,13,20,19.30
2019,05,06,13,21,19.30
2019,05,06,13,22,19.30
2019,05,06,13,23,19.30
2019,05,06,13,24,19.30
2019,05,06,13,25,19.30
2019,05,06,13,26,19.40
2019,05,06,13,27,19.40
2019,05,06,13,28,19.40
2019,05,06,13,29,19.50
2019,05,06,13,30,19.50
2019,05,06,13,31,19.50
2019,05,06,13,32,19.60
2019,05,06,13,33,19.60
2019,05,06,13,34,19.60
2019,05,06,13,35,19.70
2019,05,06,13,36,19.70
2019,05,06,13,37,19.70
2019,05,06,13,38,19.80
2019,05,06,13,39,19.80
2019,05,06,13,40,19.90
2019,05,06,13,41,20.00
2019,05,06,13,42,20.00
2019,05,06,13,43,20.10
2019,05,06,13,44,20.10
2019,05,06,13,45,20.10
2019,05,06,13,46,20.20
2019,05,06,13,47,20.20
2019,05,06,13,48,20.20
2019,05,06,13,49,20.30
2019,05,06,13,50,20.30
2019,05,06,13,51,20.40
2019,05,06,13,52,20.40
2019,05,06,13,53,20.40
2019,05,06,13,54,20.40
2019,05,06,13,55,20.30
2019,05,06,13,56,20.40
2019,05,06,13,57,20.40
2019,05,06,13,58,20.40
2019,05,06,13,59,20.50
2019,05,06,14,00,20.60
2019,05,06,14,01,20.70
2019,05,06,14,02,20.70
2019,05,06,14,03,20.80
2019,05,06,14,04,20.80
2019,05,06,14,05,20.80
2019,05,06,14,06,20.80
2019,05,06,14,07,20.70
2019,05,06,14,08,20.70
2019,05,06,14,09,20.70
2019,05,06,14,10,20.70
2019,05,06,14,11,20.60
2019,05,06,14,12,20.50
2019,05,06,14,13,20.40
2019,05,06,14,14,20.30
2019,05,06,14,15,20.30
2019,05,06,14,16,20.30
2019,05,06,14,17,20.20
2019,05,06,14,18,20.10
2019,05,06,14,19,20.10
2019,05,06,14,20,20.10
2019,05,06,14,21,20.00
2019,05,06,14,22,20.00
2019,05,06,14,23,19.90
2019,05,06,14,24,19.90
2019,05,06,14,25,19.80
2019,05,06,14,26,19.80
2019,05,06,14,27,19.90
2019,05,06,14,28,19.90
2019,05,06,14,29,20.00
2019,05,06,14,30,20.00
2019,05,06,14,31,20.00
2019,05,06,14,32,19.90
2019,05,06,14,33,19.90
2019,05,06,14,34,19.90
2019,05,06,14,35,19.90
2019,05,06,14,36,19.90
2019,05,06,14,37,19.90
2019,05,06,14,38,19.90
2019,05,06,14,39,19.80
2019,05,06,14,40,19.80
2019,05,06,14,41,19.70
2019,05,06,14,42,19.70
2019,05,06,14,43,19.70
2019,05,06,14,44,19.80
2019,05,06,14,45,19.90
2019,05,06,14,46,19.90
2019,05,06,14,47,20.00
2019,05,06,14,48,20.10
2019,05,06,14,49,20.20
2019,05,06,14,50,20.20
2019,05,06,14,51,20.10
2019,05,06,14,52,20.10
2019,05,06,14,53,20.00
2019,05,06,14,54,20.00
2019,05,06,14,55,20.00
2019,05,06,14,56,20.00
2019,05,06,14,57,20.00
2019,05,06,14,58,20.00
2019,05,06,14,59,20.00
2019,05,06,15,00,19.90
2019,05,06,15,01,20.00
2019,05,06,15,02,20.00
2019,05,06,15,03,20.10
2019,05,06,15,04,20.10
2019,05,06,15,05,20.10
2019,05,06,15,06,20.10
2019,05,06,15,07,20.10
2019,05,06,15,08,20.10
2019,05,06,15,09,20.00
2019,05,06,15,10,20.00
2019,05,06,15,11,20.00
2019,05,06,15,12,20.00
2019,05,06,15,13,20.00
2019,05,06,15,14,20.10
2019,05,06,15,15,20.20
2019,05,06,15,16,20.30
2019,05,06,15,17,20.40
2019,05,06,15,18,20.40
2019,05,06,15,19,20.40
2019,05,06,15,20,20.40
2019,05,06,15,21,20.40
2019,05,06,15,22,20.50
2019,05,06,15,23,20.50
2019,05,06,15,24,20.50
2019,05,06,15,25,20.50
2019,05,06,15,26,20.40
2019,05,06,15,27,20.40
2019,05,06,15,28,20.40
2019,05,06,15,29,20.40
2019,05,06,15,30,20.40
2019,05,06,15,31,20.50
2019,05,06,15,32,20.50
2019,05,06,15,33,20.50
2019,05,06,15,34,20.50
2019,05,06,15,35,20.60
2019,05,06,15,36,20.60
2019,05,06,15,37,20.60
2019,05,06,15,38,20.60
2019,05,06,15,39,20.60
2019,05,06,15,40,20.60
2019,05,06,15,41,20.70
2019,05,06,15,42,20.70
2019,05,06,15,43,20.80
2019,05,06,15,44,20.80
2019,05,06,15,45,20.90
2019,05,06,15,46,20.90
2019,05,06,15,47,21.00
2019,05,06,15,48,21.00
2019,05,06,15,49,21.10
2019,05,06,15,50,21.20
2019,05,06,15,51,21.20
2019,05,06,15,52,21.30
2019,05,06,15,53,21.30
2019,05,06,15,54,21.40
2019,05,06,15,55,21.40
2019,05,06,15,56,21.40
2019,05,06,15,57,21.40
2019,05,06,15,58,21.50
2019,05,06,15,59,21.50
2019,05,06,16,00,21.50
2019,05,06,16,01,21.60
2019,05,06,16,02,21.60
2019,05,06,16,03,21.60
2019,05,06,16,04,21.60
2019,05,06,16,05,21.60
2019,05,06,16,06,21.60
2019,05,06,16,07,21.60
2019,05,06,16,08,21.60
2019,05,06,16,09,21.60
2019,05,06,16,10,21.70
2019,05,06,16,11,21.60
2019,05,06,16,12,21.60
2019,05,06,16,13,21.60
2019,05,06,16,14,21.50
2019,05,06,16,15,21.40
2019,05,06,16,16,21.40
2019,05,06,16,17,21.40
2019,05,06,16,18,21.30
2019,05,06,16,19,21.40
2019,05,06,16,20,21.40
2019,05,06,16,21,21.40
2019,05,06,16,22,21.40
2019,05,06,16,23,21.40
2019,05,06,16,24,21.40
2019,05,06,16,25,21.50
2019,05,06,16,26,21.60
2019,05,06,16,27,21.70
2019,05,06,16,28,21.80
2019,05,06,16,29,21.90
2019,05,06,16,30,22.00
2019,05,06,16,31,22.10
2019,05,06,16,32,22.20
2019,05,06,16,33,22.20
2019,05,06,16,34,22.20
2019,05,06,16,35,22.30
2019,05,06,16,36,22.30
2019,05,06,16,37,22.20
2019,05,06,16,38,22.20
2019,05,06,16,39,22.20
2019,05,06,16,40,22.20
2019,05,06,16,41,22.20
2019,05,06,16,42,22.30
2019,05,06,16,43,22.40
2019,05,06,16,44,22.40
2019,05,06,16,45,22.30
2019,05,06,16,46,22.30
2019,05,06,16,47,22.30
2019,05,06,16,48,22.30
2019,05,06,16,49,22.30
2019,05,06,16,50,22.30
2019,05,06,16,51,22.30
2019,05,06,16,52,22.30
2019,05,06,16,53,22.30
2019,05,06,16,54,22.20
2019,05,06,16,55,22.20
2019,05,06,16,56,22.10
2019,05,06,16,57,21.90
2019,05,06,16,58,21.80
2019,05,06,16,59,21.80
2019,05,06,17,00,21.80
2019,05,06,17,01,21.70
2019,05,06,17,02,21.70
2019,05,06,17,03,21.60
2019,05,06,17,04,21.50
2019,05,06,17,05,21.40
2019,05,06,17,06,21.30
2019,05,06,17,07,21.20
2019,05,06,17,08,21.20
2019,05,06,17,09,21.10
2019,05,06,17,10,21.10
2019,05,06,17,11,21.10
2019,05,06,17,12,21.00
2019,05,06,17,13,21.00
2019,05,06,17,14,20.90
2019,05,06,17,15,20.90
2019,05,06,17,16,20.80
2019,05,06,17,17,20.80
2019,05,06,17,18,20.80
2019,05,06,17,19,20.80
2019,05,06,17,20,20.80
2019,05,06,17,21,20.80
2019,05,06,17,22,20.80
2019,05,06,17,23,20.80
2019,05,06,17,24,20.80
2019,05,06,17,25,20.80
2019,05,06,17,26,20.90
2019,05,06,17,27,21.00
2019,05,06,17,28,21.10
2019,05,06,17,29,21.20
2019,05,06,17,30,21.30
2019,05,06,17,31,21.30
2019,05,06,17,32,21.30
2019,05,06,17,33,21.40
2019,05,06,17,34,21.40
2019,05,06,17,35,21.30
2019,05,06,17,36,21.30
2019,05,06,17,37,21.10
2019,05,06,17,38,21.00
2019,05,06,17,39,20.90
2019,05,06,17,40,20.80
2019,05,06,17,41,20.70
2019,05,06,17,42,20.70
2019,05,06,17,43,20.60
2019,05,06,17,44,20.60
2019,05,06,17,45,20.50
2019,05,06,17,46,20.50
2019,05,06,17,47,20.40
2019,05,06,17,48,20.40
2019,05,06,17,49,20.30
2019,05,06,17,50,20.30
2019,05,06,17,51,20.30
2019,05,06,17,52,20.30
2019,05,06,17,53,20.30
2019,05,06,17,54,20.30
2019,05,06,17,55,20.30
2019,05,06,17,56,20.30
2019,05,06,17,57,20.40
2019,05,06,17,58,20.40
2019,05,06,17,59,20.50
2019,05,06,18,00,20.50
2019,05,06,18,01,20.60
2019,05,06,18,02,20.60
2019,05,06,18,03,20.70
2019,05,06,18,04,20.60
2019,05,06,18,05,20.60
2019,05,06,18,06,20.60
2019,05,06,18,07,20.60
2019,05,06,18,08,20.60
2019,05,06,18,09,20.60
2019,05,06,18,10,20.60
2019,05,06,18,11,20.60
2019,05,06,18,12,20.70
2019,05,06,18,13,20.70
2019,05,06,18,14,20.80
2019,05,06,18,15,20.70
2019,05,06,18,16,20.60
2019,05,06,18,17,20.50
2019,05,06,18,18,20.50
2019,05,06,18,19,20.40
2019,05,06,18,20,20.40
2019,05,06,18,21,20.30
2019,05,06,18,22,20.30
2019,05,06,18,23,20.30
2019,05,06,18,24,20.30
2019,05,06,18,25,20.30
2019,05,06,18,26,20.30
2019,05,06,18,27,20.20
2019,05,06,18,28,20.10
2019,05,06,18,29,20.10
2019,05,06,18,30,20.00
2019,05,06,18,31,20.00
2019,05,06,18,32,19.90
2019,05,06,18,33,19.80
2019,05,06,18,34,19.80
2019,05,06,18,35,19.70
2019,05,06,18,36,19.70
2019,05,06,18,37,19.60
2019,05,06,18,38,19.60
2019,05,06,18,39,19.50
2019,05,06,18,40,19.40
2019,05,06,18,41,19.40
2019,05,06,18,42,19.30
2019,05,06,18,43,19.20
2019,05,06,18,44,19.20
2019,05,06,18,45,19.10
2019,05,06,18,46,19.10
2019,05,06,18,47,19.00
2019,05,06,18,48,18.90
2019,05,06,18,49,18.90
2019,05,06,18,50,18.80
2019,05,06,18,51,18.80
2019,05,06,18,52,18.80
2019,05,06,18,53,18.70
2019,05,06,18,54,18.70
2019,05,06,18,55,18.60
2019,05,06,18,56,18.60
2019,05,06,18,57,18.60
2019,05,06,18,58,18.50
2019,05,06,18,59,18.40
2019,05,06,19,00,18.40
2019,05,06,19,01,18.30
2019,05,06,19,02,18.30
2019,05,06,19,03,18.30
2019,05,06,19,04,18.30
2019,05,06,19,05,18.30
2019,05,06,19,06,18.30
2019,05,06,19,07,18.30
2019,05,06,19,08,18.30
2019,05,06,19,09,18.30
2019,05,06,19,10,18.30
2019,05,06,19,11,18.30
2019,05,06,19,12,18.30
2019,05,06,19,13,18.30
2019,05,06,19,14,18.30
2019,05,06,19,15,18.20
2019,05,06,19,16,18.20
2019,05,06,19,17,18.20
2019,05,06,19,18,18.20
2019,05,06,19,19,18.10
2019,05,06,19,20,18.10
2019,05,06,19,21,18.10
2019,05,06,19,22,18.10
2019,05,06,19,23,18.10
2019,05,06,19,24,18.10
2019,05,06,19,25,18.00
2019,05,06,19,26,18.00
2019,05,06,19,27,17.90
2019,05,06,19,28,17.90
2019,05,06,19,29,17.80
2019,05,06,19,30,17.80
2019,05,06,19,31,17.80
2019,05,06,19,32,17.80
2019,05,06,19,33,17.80
2019,05,06,19,34,17.80
2019,05,06,19,35,17.80
2019,05,06,19,36,17.80
2019,05,06,19,37,17.80
2019,05,06,19,38,17.80
2019,05,06,19,39,17.80
2019,05,06,19,40,17.80
2019,05,06,19,41,17.80
2019,05,06,19,42,17.80
2019,05,06,19,43,17.80
